COSMOS 1275 DEB, 42174

Orbit data source: Space-Track

COSMOS 1275 DEB, 42174 is space debris in LEO originally from a launch on Thu, 04 Jun 1981 UTC launched from the Plesetsk Missile And Space Complex (PKMTR). Debris objects in space refer to the collection of defunct objects orbiting the Earth. Examples of debris include non-operational satellites, rocket bodies, and fragments generated from explosions, collisions, or faulty payload assembly.

Loading next visibility...
COSMOS 1275 DEB details
Identifier
42174, 1981-053SN
Orbit
LEO
Last TLE update1 week ago
Origin
Flag of CISGUKOS (CIS)
ManufacturerUnknown
MissionSpacecraft
Bus & MotorUnknown
MassUnknown
Launch date (UTC)
1981-06-04 (44 years ago)
Launch vehicleUnknown
Launch site
Plesetsk Missile And Space Complex (PKMTR)
Object type
Payload
Rocket body
Debris
Shape & HBRUnknown
Radar Cross SectionSmall (<0.1 m²)

Expand to show TLE details & history

TLE from 1 week ago
0 COSMOS 1275 DEB
1 42174U 81053SN  24352.24011815  .00032658  00000-0  64838-2 0  9998
2 42174  82.7622 176.5171 0022584  52.8920 307.4343 14.61851215 38438
Epoch: 2024-12-17T05:45Z
Definitive object data (Epoch: 2024-12-17T05:45:46.208Z)
Latitude-0.00001°
Longitude3.72304°
Altitude680.54 km
Speed7.521 km/s
True Right ascension11h 46m 04s
True Declination0° 00' 00"
Sunlit
Object was in daylight at TLE epoch
Visualization TLE readout
Latitude-15.65714°
Longitude-6.52058°
Altitude679.09 km
Speed7.523 km/s
Apparent Right ascension08h 00m 39s
Apparent Declination-51° 16' 27"
Sunlit
Object is in daylight
Visualization observer readout
Local Sidereal Time14:03:57
Azimuth226.549° WSW
Elevation-30.498°
Doppler factor1
Orbital elements
Apogee altitude700.189 km
Perigee altitude668.29 km
Semi-major axis7,062.377 km
Eccentricity0.0022584
Inclination82.7622°
RAAN176.5171°
Arg. of periapsis52.892°
True anomaly307.22845°
Mean anomaly307.4343°
Eccentric anomaly307.33141°
Mean motion3.65693 °/min
BSTAR0.0064838
Orbital period98.44 mins
Loading maneuver chart data...
Loading historical data...
Loading historical data...
Loading historical data...
Loading historical data...
Loading historical data...
Loading historical data...
Loading historical data...

COSMOS 1275 DEB Visibility forecast

Observer location: undefined°, undefined

Span
Click to sort rows by Start time (UTC) header in descending order
Start Az.
Max El. time (UTC)
Max El. Az.
Max El.
End time (UTC)
End Az.
7 mins2024-12-26 23:34:04.496Z342.827° N2024-12-26 23:37:04.496Z271.374° WNW42.435°2024-12-26 23:41:04.496Z185.78° SSW
7 mins2024-12-27 12:15:04.496Z196.207° SSW2024-12-27 12:18:04.496Z269.702° W43.578°2024-12-27 12:22:04.496Z1.862° NNE
|